EST,Max TemperatureF,Mean TemperatureF,Min TemperatureF,Max Dew PointF,MeanDew PointF,Min DewpointF,Max Humidity, Mean Humidity, Min Humidity, Max Sea Level PressureIn, Mean Sea Level PressureIn, Min Sea Level PressureIn, Max VisibilityMiles, Mean VisibilityMiles, Min VisibilityMiles, Max Wind SpeedMPH, Mean Wind SpeedMPH, Max Gust SpeedMPH,PrecipitationIn, CloudCover, Events, WindDirDegrees
2011-11-1,51,43,35,37,35,30,81,66,54,30.40,30.35,30.31,10,10,10,16,8,22,0.00,3,,80
2011-11-2,53,44,35,39,36,30,81,65,58,30.39,30.34,30.31,10,10,10,15,10,21,0.00,1,,44
2011-11-3,59,48,37,46,44,34,87,76,63,30.25,30.05,29.90,10,10,10,20,12,25,0.00,0,,223
2011-11-4,51,48,44,46,35,27,82,61,43,30.20,29.99,29.87,10,10,10,25,16,38,0.00,5,,339
2011-11-5,46,37,28,30,27,21,80,59,50,30.49,30.38,30.21,10,10,10,24,16,33,0.00,4,,29
2011-11-6,55,42,28,39,32,21,80,62,44,30.52,30.47,30.39,10,10,10,23,8,28,0.00,0,,233
2011-11-7,57,52,46,48,44,39,82,73,63,30.35,30.26,30.19,10,10,10,22,16,29,0.00,0,,235
2011-11-8,64,56,48,48,45,43,82,70,49,30.26,30.23,30.19,10,10,10,10,7,,0.00,0,,241
2011-11-9,64,57,50,54,50,45,88,81,68,30.24,30.19,30.12,10,10,6,13,7,17,0.00,0,,176
2011-11-10,62,58,55,57,55,52,94,86,77,30.07,29.80,29.47,10,8,1,15,8,22,0.10,8,,153
2011-11-11,55,48,42,54,37,28,94,67,44,29.86,29.55,29.41,10,10,3,29,18,43,0.07,5,,288
2011-11-12,51,46,41,39,33,27,66,57,41,30.14,30.04,29.87,10,10,10,29,21,33,0.00,0,,246
2011-11-13,60,53,46,48,44,37,82,71,63,30.19,30.11,30.02,10,10,10,23,11,29,0.00,0,,205
2011-11-14,60,58,55,52,51,48,88,81,72,29.98,29.88,29.76,10,10,10,24,19,31,0.00,3,,217
2011-11-15,64,60,55,55,51,48,88,77,63,29.96,29.81,29.71,10,10,7,22,15,30,0.00,5,,240
2011-11-16,57,54,51,54,50,48,94,86,77,29.98,29.86,29.68,10,8,2,10,5,,0.53,8,,158
2011-11-17,53,46,39,52,40,30,94,74,53,29.87,29.76,29.68,10,9,3,26,12,33,0.30,8,,322
2011-11-18,44,40,37,30,24,21,65,51,39,30.42,30.22,29.88,10,10,10,26,20,36,0.00,1,,280
2011-11-19,53,48,42,46,35,21,77,61,42,30.42,30.35,30.25,10,10,10,29,19,38,0.00,1,,226
2011-11-20,59,55,51,52,48,43,88,79,67,30.24,30.08,30.00,10,10,10,24,17,32,0.00,2,,224
2011-11-21,53,43,30,46,34,23,82,68,53,30.37,30.27,30.07,10,10,10,17,11,24,0.00,4,,40
2011-11-22,46,34,23,34,27,16,86,67,53,30.42,30.37,30.29,10,10,10,7,2,,0.00,0,,98
2011-11-23,57,48,39,55,41,30,94,82,70,30.22,29.77,29.51,10,8,2,31,18,44,1.25,8,,36
2011-11-24,42,38,33,34,29,27,81,67,57,30.19,30.09,29.90,10,10,10,26,15,33,0.00,5,,336
2011-11-25,55,48,42,45,42,34,81,74,67,30.15,30.07,30.01,10,10,10,18,12,23,0.00,0,,224
2011-11-26,57,52,42,43,40,37,82,68,55,30.23,30.15,30.06,10,10,10,14,8,,0.00,0,,235
2011-11-27,57,50,44,52,47,39,93,84,67,30.24,30.20,30.17,10,10,1,15,8,20,0.00,0,,173
2011-11-28,60,56,53,52,50,48,88,81,72,30.17,30.13,30.11,10,10,10,21,15,28,0.00,0,,214
2011-11-29,55,54,53,52,50,48,94,87,82,30.14,30.13,30.13,10,10,10,13,9,,0.00,3,,190
2011-11-30,55,50,46,46,39,34,76,66,58,29.84,29.73,29.64,10,10,10,24,16,30,0.00,2,,239